Location: Krakow
(50.0830°N, 19.9170°E)
Time: 21:55:05
(UTC+02:00)

deb Explorer IX - Visible Passes

Search period start: 17 July 2024 00:00
Search period end: 27 July 2024 00:00
Orbit: 510 x 879 km, 38.7° (Epoch: 17 July)

Date Brightness Start Highest point End Pass type
(mag) Time Alt. Az. Time Alt. Az. Time Alt. Az.
17 Jul ? 21:36:13 10° S 21:38:24 12° SSE 21:40:31 10° SE visible
17 Jul ? 23:17:40 10° SW 23:19:20 16° SSW 23:19:20 16° SSW visible
18 Jul ? 22:15:27 10° SSW 22:19:14 19° SSE 22:20:39 17° SSE visible
18 Jul ? 23:58:29 10° SW 23:59:18 13° SW 23:59:18 13° SW visible
19 Jul ? 22:55:54 10° SW 23:00:06 23° S 23:00:13 23° S visible
20 Jul ? 21:53:26 10° SW 21:57:42 22° S 22:00:52 13° SE visible
20 Jul ? 23:36:53 10° WSW 23:39:28 19° SSW 23:39:28 19° SSW visible
21 Jul ? 22:34:04 10° SW 22:38:30 24° S 22:39:56 22° SSE visible
22 Jul ? 00:18:22 10° WSW 00:18:32 11° WSW 00:18:32 11° WSW visible
22 Jul ? 21:31:23 10° SW 21:36:00 25° S 21:40:15 10° ESE visible
22 Jul ? 23:15:10 10° WSW 23:18:51 21° SSW 23:18:51 21° SSW visible
23 Jul ? 22:12:10 10° WSW 22:16:43 24° S 22:19:03 18° SSE visible
23 Jul ? 23:56:55 10° WSW 23:57:39 12° SW 23:57:39 12° SW visible
24 Jul ? 21:09:18 10° SW 21:14:06 26° S 21:18:37 10° SE visible
24 Jul ? 22:53:22 10° WSW 22:57:17 19° SSW 22:57:47 19° SSW visible
25 Jul ? 21:50:10 10° WSW 21:54:42 23° SSW 21:57:52 15° SSE visible
25 Jul ? 23:35:40 10° SW 23:36:27 11° SW 23:36:27 11° SW visible
26 Jul ? 22:31:33 10° WSW 22:35:08 17° SSW 22:36:30 16° S visible
